Flag for U.S.A. Weather past 2 weeks in Fort Collins, Colorado, U.S.A.

18 °F

Passing clouds.

Feels Like: 6 °F
Forecast: 16 / 28 °F
Wind: 10 mph from Southeast

Location: Fort Collins-Loveland Municipal Airport

Current Time: Nov 27, 2015 at 6:19:18 PM

Latest Report: Nov 27, 2015 at 5:35 PM

Visibility: 10 mi

Pressure: 30.33 "Hg (24.93 "Hg at 1522m altitude)

Humidity: 79%

Dew point: 12 °F

Location of Fort CollinsLocation

Historic Weather in Fort Collins — Graph


Fort Collins temperature yesterday

Maximum temperature yesterday: 27 °F (at 12:15 AM)
Minimum temperature yesterday: 16 °F (at 7:35 PM)
Average temperature yesterday: 20 °F

Past Weeks' High & Low Weather Summary

High63 °F (Nov 14, 1:55 PM)93% (Nov 21, 7:55 AM)30.44 "Hg (Nov 21, 7:55 AM)
Low9 °F (Nov 27, 5:35 AM)20% (Nov 24, 1:55 PM)29.43 "Hg (Nov 18, 4:35 AM)
Average34 °F61%29.98 "Hg
* Reported Nov 12 4:15 PM — Nov 27 4:35 PM, Fort Collins, Weather by CustomWeather, © 2015

Note: Actual official high and low records may vary slightly from our data, if they occured in-between our weather recording intervals... More about our weather records


Fort Collins weather history for previous 24 hours

Time TempWeatherWind HumidityBarometerVisibility
4:35 PM
Fri, Nov 27
18 °FOvercast.8 mph73%30.32 "Hg10 mi
3:55 PM18 °FOvercast.5 mph73%30.32 "Hg10 mi
3:35 PM18 °FOvercast.6 mph73%30.33 "Hg10 mi
3:15 PM18 °FOvercast.6 mph73%30.33 "Hg10 mi
2:55 PM18 °FOvercast.5 mph73%30.33 "Hg10 mi
2:35 PM18 °FPartly sunny.7 mph73%30.33 "Hg10 mi
1:55 PM18 °FOvercast.7 mph73%30.33 "Hg10 mi
1:35 PM18 °FOvercast.7 mph73%30.34 "Hg10 mi
1:15 PM18 °FPartly sunny.8 mph73%30.35 "Hg10 mi
12:55 PM18 °FPartly sunny.8 mph73%30.35 "Hg10 mi
12:35 PM18 °FOvercast.9 mph73%30.36 "Hg10 mi
12:15 PM16 °FOvercast.9 mph79%30.37 "Hg10 mi
11:55 AM18 °FOvercast.8 mph73%30.38 "Hg10 mi
11:35 AM18 °FOvercast.9 mph73%30.39 "Hg10 mi
11:15 AM16 °FOvercast.9 mph79%30.40 "Hg10 mi
10:55 AM16 °FOvercast.8 mph86%30.42 "Hg10 mi
10:35 AM16 °FPartly sunny.8 mph79%30.42 "Hg10 mi
10:15 AM16 °FScattered clouds.8 mph79%30.43 "Hg10 mi
9:55 AM14 °FSunny.7 mph85%30.43 "Hg10 mi
9:35 AM14 °FPassing clouds.6 mph85%30.43 "Hg10 mi
8:55 AM12 °FPartly sunny.5 mph92%30.43 "Hg8 mi
8:35 AM12 °FPartly sunny.6 mph92%30.43 "Hg9 mi
8:15 AM12 °FPartly sunny.6 mph85%30.44 "Hg8 mi
7:55 AM12 °FOvercast.6 mph85%30.43 "Hg9 mi
7:35 AM12 °FOvercast.5 mph85%30.43 "Hg8 mi
7:15 AM12 °FOvercast.3 mph85%30.43 "Hg10 mi
6:55 AM12 °FOvercast.5 mph85%30.43 "Hg10 mi
6:35 AM12 °FOvercast.3 mph85%30.43 "Hg10 mi
6:15 AM10 °FOvercast.No wind85%30.43 "Hg10 mi
5:55 AM10 °FOvercast.No wind85%30.43 "Hg10 mi
5:35 AM9 °FPassing clouds.No wind85%30.42 "Hg10 mi
5:15 AM10 °FPassing clouds.3 mph85%30.42 "Hg10 mi
4:55 AM10 °FPassing clouds.5 mph85%30.42 "Hg10 mi
4:35 AM10 °FPassing clouds.3 mph85%30.42 "Hg10 mi
4:15 AM10 °FClear.3 mph85%30.42 "Hg10 mi
3:55 AM12 °FClear.5 mph85%30.42 "Hg10 mi
3:35 AM12 °FClear.5 mph85%30.41 "Hg10 mi
3:15 AM12 °FClear.No wind85%30.42 "Hg10 mi
2:55 AM14 °FClear.No wind85%30.42 "Hg8 mi
2:35 AM14 °FClear.No wind85%30.42 "Hg10 mi
2:15 AM14 °FClear.3 mph85%30.42 "Hg10 mi
1:55 AM14 °FClear.No wind85%30.42 "Hg5 mi
1:35 AM14 °FClear.No wind85%30.42 "Hg3 mi
1:15 AM14 °FClear.No wind85%30.41 "Hg5 mi
12:55 AM16 °FPassing clouds.No wind79%30.41 "Hg2 mi
11:35 PM
Thu, Nov 26
16 °FOvercast.3 mph79%30.41 "Hg3 mi
11:15 PM16 °FMostly cloudy.3 mph79%30.42 "Hg3 mi
10:35 PM16 °FOvercast.6 mph79%30.42 "Hg9 mi
9:55 PM16 °FOvercast.5 mph79%30.41 "Hg10 mi
8:55 PM16 °FPassing clouds.7 mph86%30.39 "Hg10 mi
8:35 PM16 °FPassing clouds.3 mph86%30.39 "Hg10 mi
8:15 PM16 °FPassing clouds.3 mph79%30.38 "Hg10 mi
7:55 PM16 °FPassing clouds.3 mph79%30.38 "Hg10 mi
7:35 PM16 °FPassing clouds.5 mph79%30.37 "Hg10 mi
7:15 PM18 °FClear.5 mph79%30.36 "Hg4 mi
6:55 PM18 °FClear.5 mph73%30.36 "Hg7 mi
6:35 PM18 °FClear.7 mph73%30.35 "Hg9 mi
6:15 PM18 °FClear.8 mph73%30.34 "Hg8 mi
Weather by CustomWeather, © 2015

See weather overviewHow to use our weather pages